Regional Weather Roundup
Issued by NWS

Home | Current Version | Previous Version | Text Only | Print | Product List | Glossary Off
Versions: 1 2 3 4 5 6 7 8 9 10 11 12 13 14 15 16 17 18 19 20 21 22 23 24 25 26 27 28 29 30 31 32 33 34 35 36 37 38 39 40 41 42 43 44 45 46 47 48 49 50

000
ASUS43 KOAX 011210
RWRNE

WEATHER ROUNDUP FOR NEBRASKA
NATIONAL WEATHER SERVICE OMAHA NE
700 AM CDT SUN MAY 01 2016

NOTES: SATELLITE DATA IS BEING USED TO AUGMENT CLOUD COVER ABOVE
       12000 FEET.
       "FAIR" INDICATES FEW OR NO CLOUDS BELOW 12,000 FEET WITH NO
       SIGNIFICANT WEATHER AND/OR OBSTRUCTIONS TO VISIBILITY.

  * THESE STATIONS DO NOT REPORT WEATHER SUCH AS RAIN...SNOW OR FOG.

NEZ001>004-019>022-054>056-011300-
NEBRASKA PANHANDLE

CITY           SKY/WX    TMP DP  RH WIND       PRES   REMARKS
SCOTTSBLUFF    CLOUDY    37  33  85 NW7       30.26R WCI  32
6HR MIN TEMP:  37; 6HR MAX TEMP:  38; 6HR PCP:  0.01;

ALLIANCE       CLOUDY    35  32  88 N14       30.21S WCI  26
6HR MIN TEMP:  33; 6HR MAX TEMP:  35; 6HR PCP:  0.03;

CHADRON        CLOUDY    35  29  78 N6        30.27R WCI  30
6HR MIN TEMP:  35; 6HR MAX TEMP:  41; 6HR PCP: TRACE;

KIMBALL        CLOUDY    33  33  99 N12       30.24R WCI  24
SIDNEY         CLOUDY    34  32  92 N15       30.22R WCI  24
6HR MIN TEMP:  33; 6HR MAX TEMP:  34; 6HR PCP: TRACE;

$$

NEZ057>060-069>072-079>082-011300-
SOUTHWEST NEBRASKA

CITY           SKY/WX    TMP DP  RH WIND       PRES   REMARKS
NORTH PLATTE   CLOUDY    37  35  92 N14       30.14R WCI  28
6HR MIN TEMP:  33; 6HR MAX TEMP:  37; 6HR PCP:  0.12;

IMPERIAL       CLOUDY    36  34  92 N20       30.16R WCI  25
6HR MIN TEMP:  34; 6HR MAX TEMP:  36; 6HR PCP:  0.05;

LEXINGTON      LGT RAIN  40  37  89 N16       30.10R WCI  31
MCCOOK         CLOUDY    37  34  89 N20       30.10R WCI  27
6HR MIN TEMP:  36; 6HR MAX TEMP:  38; 6HR PCP:  0.01;

OGALLALA       CLOUDY    37  34  89 N17G25    30.18R WCI  27
$$

NEZ005>010-023>029-035>040-094-011300-
NORTH CENTRAL NEBRASKA

CITY           SKY/WX    TMP DP  RH WIND       PRES   REMARKS
VALENTINE      CLEAR     36  33  89 N13       30.19R WCI  27
6HR MIN TEMP:  36; 6HR MAX TEMP:  40; 6HR PCP:  0.04;

AINSWORTH      CLOUDY    38  37  94 N14G20    30.16R WCI  30
BROKEN BOW     LGT RAIN  40  38  93 N24G31    30.09R WCI  29
6HR MIN TEMP:  38; 6HR MAX TEMP:  40; 6HR PCP:  0.32;

O`NEILL        LGT RAIN  42  40  94 N9        30.12R
ORD            LGT RAIN  41  39  93 N16       30.08R
6HR MIN TEMP:  41; 6HR MAX TEMP:  41; 6HR PCP:  0.20;

THEDFORD         N/A     37  37  98 NW12      30.16R WCI  29
$$

NEZ041-046>049-061>064-073>077-083>087-011300-
SOUTH CENTRAL NEBRASKA

CITY           SKY/WX    TMP DP  RH WIND       PRES   REMARKS
GRAND ISLAND   LGT RAIN  40  38  93 N18G26    30.04R WCI  31
6HR MIN TEMP:  40; 6HR MAX TEMP:  43; 6HR PCP:  0.03;

AURORA         LGT RAIN  42  41  99 N18       30.01R
HASTINGS       LGT RAIN  41  39  93 N17       30.02R
6HR MIN TEMP:  41; 6HR MAX TEMP:  44; 6HR PCP:  0.02;

HEBRON         DRIZZLE   45  44  96 N12G18    29.95R
HOLDREGE       DRIZZLE   39  37  93 N18       30.05R WCI  30
KEARNEY *      CLOUDY    39  37  93 N16       30.06R WCI  30
YORK           MIX PCPN  41  41 100 N18G25    29.99R
$$

NEZ011>018-030>034-042>045-011300-
NORTHEAST NEBRASKA

CITY           SKY/WX    TMP DP  RH WIND       PRES   REMARKS
NORFOLK        LGT RAIN  41  39  93 NE12      30.05R FOG
6HR MIN TEMP:  41; 6HR MAX TEMP:  42; 6HR PCP:  0.21;

ALBION         LGT RAIN  41  39  94 NE13G21   30.06R
BLAIR          CLOUDY    44  43  97 NE12      29.97R
COLUMBUS *     CLOUDY    43  34  70 N14       30.03R
FREMONT        CLOUDY    42  42  99 N10G16    30.00R FOG
TEKAMAH        CLOUDY    43  42  97 N14       30.01R
6HR MIN TEMP:  43; 6HR MAX TEMP:  45; 6HR PCP:  0.05;

WAYNE          DRIZZLE   42  40  93 NE15      30.06R
$$

NEZ050>053-065>068-078-088>093-011300-
SOUTHEAST NEBRASKA

CITY           SKY/WX    TMP DP  RH WIND       PRES   REMARKS
LINCOLN        LGT RAIN  45  43  93 N10       29.98R
6HR MIN TEMP:  45; 6HR MAX TEMP:  49; 6HR PCP:  0.03;

OMAHA EPPLEY   LGT RAIN  45  43  93 NE8       29.98R
6HR MIN TEMP:  45; 6HR MAX TEMP:  48; 6HR PCP:  0.01;

BEATRICE       CLOUDY    47  46  96 W3        29.93R FOG
FALLS CITY     CLOUDY    50  48  93 W7        29.91R
6HR MIN TEMP:  49; 6HR MAX TEMP:  54;

NEBRASKA CITY  CLOUDY    47  47 100 NE12      29.94R FOG
PLATTSMOUTH    CLOUDY    45  44  99 NE9       29.95R
$$

NEZ044-045-051>053-067-011300-
OMAHA AREA

CITY           SKY/WX    TMP DP  RH WIND       PRES   REMARKS
OMAHA EPPLEY   LGT RAIN  45  43  93 NE8       29.98R
6HR MIN TEMP:  45; 6HR MAX TEMP:  48; 6HR PCP:  0.01;

BLAIR          CLOUDY    44  43  97 NE12      29.97R
FREMONT        CLOUDY    42  42  99 N10G16    30.00R FOG
MILLARD        DRIZZLE   45  43  95 NE6       29.98R
OFFUTT AFB     CLOUDY    45  44  96 N9        29.96R
PLATTSMOUTH    CLOUDY    45  44  99 NE9       29.95R
WAHOO          CLOUDY    44  42  93 N14       29.98R
$$




USA.gov is the U.S. government's official web portal to all federal, state and local government web resources and services.